www.pogodaiklimat.ru

Погода и климат >> Архив погоды >> Канада >> St. John`s


АРХИВ ПОГОДЫ в St. John`s

Время (UTC), дата Ветер
(напр.,м/с)
 
Видим.   Явления Облачность Т
(С)
Тd
(С)
f
(%)
Тe
(С)
Тes
(С)
Комфортность P
(гПа)
Po
(гПа)
Тmin
(С)
Tmax
(С)
R
(мм)
R24
(мм)
S
(см)
00 11.11 ЮВ 9 19 км слабый дождь {снег} 10/10 100 м
[Frnb]
+1.3 +1.3 100 -6 -6 холодно 1016.7 999.2 -1.4 +1.4 8 2
03 11.11 ЮВ 14 2400 м 10/10 50 м
[]
+3.1 +3.1 100 -5 -5 прохладно 1008.9 991.6
06 11.11 ЮВ 11 800 м слабый дождь {туман} н/о +4.9 +4.9 100 -2 -2 по сезону 1000.6 983.4 -1.4 +4.9 11 53
09 11.11 ЮЗ 8 24 км 5/5 600 м
[]
+10.0 +9.9 99 +6 +6 тепло 994.7 977.7
12 11.11 З 16 24 км {дождь, туман} 8/3 300 м
[Sc Ci fib]
+5.4 +1.9 78 -2 -2 по сезону 997.2 980.1 +1.3 +4.9 3
15 11.11 З 14 24 км 6/6 1000 м
[]
+5.7 -1.6 59 -1 -1 по сезону 1000.3 983.2
18 11.11 З 12 24 км 9/9 1000 м
[Sc]
+4.4 -1.9 64 -2 -2 прохладно 1000.7 983.6 -0.6 +11.9
21 11.11 З 11 24 км 9/9 600 м
[]
+3.4 -1.0 73 -4 -4 холодно 1000.9 983.9
00 12.11 З 13 24 км 8/8 600 м
[Sc]
+2.8 -2.7 67 -5 -5 прохладно 1000.8 983.7 +2.4 +6.0
03 12.11 З 15 24 км 10/10 1000 м
[]
+2.3 -3.5 65 -6 -6 холодно 999.8 982.7
06 12.11 З 15 24 км слабый ливневой снег 10/10 300 м
[Cu med, cong]
+0.1 -1.6 88 -9 -9 очень
холодно
999.9 982.7 +0.1 +11.9 0.0 53
09 12.11 З 14 24 км 8/8 600 м
[]
+0.4 -3.6 74 -9 -9 очень
холодно
1000.2 983.0
12 12.11 З 15 24 км {ливн. осадки} 3/3 600 м
[Cu hum]
+1.5 -4.2 66 -7 -7 холодно 1000.9 983.7 -0.2 +11.9 0.0
15 12.11 З 13 24 км 9/9 1000 м
[]
+3.1 -2.6 66 -5 -5 холодно 1002.4 985.2
18 12.11 З 12 24 км 9/9 1000 м
[Sc]
+3.8 -2.4 64 -3 -3 прохладно 1002.2 985.0 -0.2 +4.6
21 12.11 З 12 24 км 9/9 1000 м
[]
+3.0 -3.9 60 -4 -4 прохладно 1004.5 987.2
00 13.11 З 11 24 км 10/10 1000 м
[Sc]
+1.7 -4.0 66 -6 -6 холодно 1007.0 989.7 -0.2 +4.6
03 13.11 З 12 24 км 10/10 600 м
[]
+1.2 -3.6 70 -7 -7 холодно 1009.0 991.7
06 13.11 СЗ 10 24 км 10/10 600 м
[Sc]
+0.8 -3.1 75 -7 -7 холодно 1011.5 994.1 -0.2 +4.6 103
09 13.11 З 12 24 км 4/4 600 м
[]
0.0 -3.6 77 -9 -9 очень
холодно
1014.4 997.0
12 13.11 З 12 24 км 6/6 600 м
[Cu hum]
+0.5 -3.5 75 -8 -8 очень
холодно
1018.5 1001.0 -0.2 +4.6
15 13.11 СЗ 8 24 км 3/3 600 м
[]
+2.7 -2.8 67 -4 -3 прохладно 1019.3 1001.8
18 13.11 З 8 24 км 3/3 600 м
[Sc]
+2.6 -3.2 66 -4 -3 холодно 1019.7 1002.2 -0.2 +3.9
21 13.11 З 6 24 км 9/9 600 м
[]
+1.6 -3.3 70 -4 -4 прохладно 1021.2 1003.6
00 14.11 З 4 24 км 10/1 600 м
[Sc Ac As]
0.0 -3.6 77 -5 -5 прохладно 1021.2 1003.6 -0.2 +3.9
03 14.11 Ю 3 24 км 10/10 600 м
[]
-0.5 -3.1 83 -5 -5 прохладно 1017.8 1000.3
06 14.11 Ю 4 4800 м слабый снег 10/10 600 м
[Sc]
-0.3 -2.0 88 -6 -6 холодно 1013.3 995.9 -0.8 +3.9 0.0 132
09 14.11 ЮВ 9 2000 м 4/4 50 м
[]
-0.2 -0.2 100 -8 -8 очень
холодно
1003.5 986.2
12 14.11 Ю 15 4800 м слабый дождь {снег} 10/10 100 м
[Frnb]
+2.1 +2.1 100 -0.8 +3.9 8 10
15 14.11 ЮЗ 14 16 км 9/9 300 м
[]
+8.1 +7.2 94
18 14.11 14 2400 м слабый ливневой дождь со снегом н/о +0.9 -1.2 86 -9 -9 очень
холодно
979.4 962.5 -0.8 +8.2 0.8
21 14.11 З 16 24 км 10/10 1000 м
[]
0.0 -3.7 76 -10 -10 очень
холодно
978.7 961.8
00 15.11 З 20 24 км в посл. час ливневой снег 10/10 600 м
[Sc]
-1.1 -6.8 65 -12 -12 очень
холодно
976.8 959.9 -1.9 +8.2 0.0 <0.5
03 15.11 З 18 24 км 10/10 1000 м
[]
-0.9 -6.7 65 -11 -11 очень
холодно
974.6 957.9
06 15.11 З 19 12 км слабый ливневой снег 10/10 600 м
[Cu med, cong]
-1.3 -4.9 76 -12 -12 очень
холодно
974.4 957.6 -1.9 +8.2 0.0 203
09 15.11 З 23 24 км 10/10 600 м
[]
-0.5 -5.8 67 -11 -11 очень
холодно
977.8 960.9
12 15.11 З 20 24 км {ливн. осадки} 10/10 600 м
[Sc]
-0.5 -6.2 65 -11 -11 очень
холодно
984.9 967.9 -1.3 +8.2 0.0 <0.5
15 15.11 СЗ 22 24 км 10/10 1000 м
[]
+0.5 -6.4 60 -10 -10 очень
холодно
990.9 973.8
18 15.11 СЗ 21 24 км 9/9 600 м
[Sc]
-0.2 -6.4 63 -11 -11 очень
холодно
996.1 978.9 -1.9 +0.6
21 15.11 СЗ 16 24 км 9/9 600 м
[]
-0.6 -6.2 66 -10 -10 очень
холодно
1004.0 986.7
00 16.11 СЗ 14 24 км 10/10 600 м
[Sc]
-0.9 -5.6 70 -10 -10 очень
холодно
1010.2 992.8 -1.3 +0.6
03 16.11 СЗ 9 24 км 10/10 600 м
[]
-1.8 -6.0 73 -10 -10 очень
холодно
1013.8 996.3
06 16.11 СЗ 9 24 км 10/10 600 м
[Sc]
-2.7 -7.1 72 -11 -11 очень
холодно
1016.7 999.1 -2.7 +0.6 143
09 16.11 СЗ 9 24 км 9/9 600 м
[]
-3.5 -8.0 71 -12 -12 очень
холодно
1018.4 1000.8
12 16.11 СЗ 6 24 км 9/9 600 м
[Sc]
-3.1 -7.9 69 -10 -10 очень
холодно
1020.9 1003.2 -3.8 +0.6
15 16.11 СЗ 6 24 км 9/9 600 м
[]
-2.0 -8.0 63 -9 -9 очень
холодно
1020.3 1002.6
18 16.11 СЗ 3 24 км 6/3 600 м
[Sc Ci fib]
-2.0 -7.8 64 -6 -5 холодно 1018.3 1000.7 -3.8 -1.5
21 16.11 С 1 24 км 9/0
[]
-3.5 -7.9 72 -4 -4 прохладно 1017.1 999.4
00 17.11 ЮВ 5 24 км 8/8 600 м
[Sc]
-2.4 -6.2 75 -9 -9 очень
холодно
1013.4 995.8 -4.4 -1.5
03 17.11 ЮВ 10 24 км 10/10 300 м
[]
-1.9 -4.0 86 -11 -11 очень
холодно
1005.8 988.4
06 17.11 ЮВ 14 2000 м слабый снег {метель} 10/10 100 м
[Frnb]
-1.2 -1.5 98 -11 -11 очень
холодно
998.1 980.8 -4.4 -1.2 5 62
09 17.11 ЮВ 12 3200 м 10/10 50 м
[]
+0.5 +0.4 99 -8 -8 холодно 991.2 974.0
12 17.11 2400 м слабая морось {дождь} н/о +3.1 +3.1 100 -4 -4 прохладно 982.1 965.2 -2.4 -1.2 7 5
15 17.11 З 9 12 км 10/10 300 м
[]
+3.5 +2.6 94 -3 -3 прохладно 978.5 961.6
18 17.11 СЗ 13 24 км слабый дождь {морось, туман} 10/10 200 м
[Frnb]
+2.0 +1.3 95 -7 -7 очень
холодно
980.6 963.7 -4.4 +5.0 1 1

 

Местоположение метеостанции St. John`s (Канада): широта 47.62 долгота -52.73 высота над уровнем моря 140 м.

В архиве по умолчанию представлена погода в St. John`s за последнюю неделю. Архивные данные за месяц целиком и за предыдущие месяцы, начиная с января 2011 года, Вы можете получить, выбрав интересующий диапазон дат из раскрывающегося списка и нажав кнопку "Ввод!".


*Определитесь, кто Вы:
робот инопланетянин человек

Внимание! Время в таблицах - всемирное. Для получения местного времени необходимо прибавить поправку, которая в St. John`s равна -4 ч.

Смотрите также архив погоды в соседних городах и на ближайших метеорологических станциях:

Погода в Saint John West (Канада) (12 км)
Погода в Grates Cove (Канада) (63 км)
Погода в Argentia (Канада) (102 км)
Погода в Cape Race (Канада) (111 км)
Погода в Bonavista Rcs (Канада) (120 км)
Погода в Bonavista (Канада) (120 км)
Погода в Terra Nova Nat Park (Канада) (138 км)
Погода в Pools Island (Канада) (176 км)
Погода в Gander Airport Cs (Канада) (199 км)
Погода в Gander IA (Канада) (199 км)

Пояснения к столбцам:

Ветер - указаны скорость ветра в м/с - средняя за 10 мин, порывы в срок и между сроками (в фигурных скобках) и направление, откуда дует ветер: С - северный, СВ - северо-восточный, В - восточный, ЮВ - юго-восточный, Ю - южный, ЮЗ - юго-западный, З - западный, СЗ - северо-западный.
Видимость - горизонтальная дальность видимости в метрах или километрах. При видимости от 1 до 10 км при отсутствии осадков обычно наблюдается дымка, при ухудшении видимости до 1 км и менее - туман. В сухую погоду видимость может ухудшаться дымом, пылью или мглою.
Явления - указаны атмосферные явления, наблюдавшиеся в срок или в последний час перед сроком; фигурными скобками обозначены явления, наблюдавшиеся между сроками (за 1-3 часа до срока); квадратными скобками обозначены град или гололедные отложения с указанием их диаметра в мм.
Облачность - указаны через наклонную черту общая и нижняя облачность в баллах и высота нижней границы облаков в метрах; квадратными скобками обозначены формы облаков: Ci - перистые, Cs - перисто-слоистые, Cc - перисто-кучевые, Ac - высококучевые, As - высокослоистые, Sc - слоисто-кучевые, Ns - слоисто-дождевые, Cu - кучевые, Cb - кучево-дождевые. Подробнее классификацию облаков см. в Атласе облаков (PDF).
T - Температура воздуха - температура, измеренная на высоте 2 м над землей.
Td - Температура точки росы - температура, при понижении до которой содержащийся в воздухе водяной пар достигнет насыщения.
f - Относительная влажность воздуха - влажноcть воздуха, измеренная на высоте 2 м над землей.
Te - Эффективная температура - температура, которую ощущает одетый по сезону человек в тени. Характеристика душности погоды. При расчете учитывается влияние влажности воздуха и скорости ветра на теплоощущения человека.
Tes - Эффективная температура на солнце - температура, которую ощущает человек, с поправкой на солнечный нагрев. Характеристика знойности погоды. Зависит от высоты солнца над горизонтом, облачности и скорости ветра. Ночью, в пасмурную погоду, а также при ветре 12 м/с и более поправка равна нулю.
P - Атмосферное давление - приведенное к уровню моря атмосферное давление.
Po - Атмосферное давление - измеренное на уровне метеостанции атмосферное давление.
Tmin - Минимальная температура - минимум температуры воздуха на высоте 2 м над землей.
Tmax - Максимальная температура - максимум температуры воздуха на высоте 2 м над землей.
R - Количество осадков - Количество выпавших осадков за период времени, мм. При наведении курсора мыши на число - период времени, за который выпало указанное количество осадков.
R24 - Количество осадков - Количество выпавших осадков за 24 часа, мм.
S - Снежный покров - Высота снежного покрова, см. При наведении курсора мыши на число - состояние снежного покрова и степень покрытия местности в баллах.